Snowfall_Accumulation
nan nan nan nan nan nan nan nan nan nan nan nan nan nan nan nan nan 0.0 0.0 0.0 0.0 0.0 0.0 0.0 0.0 0.0 0.0 0.0 0.2 0.0 0.5 0.3 0.1 0.6 1.1 0.8 0.6 0.6 0.2 0.0 0.0 0.2 1.1 2.3 1.3 2.9 8.3 0.0 0.0 0.0 0.4 0.0 0.0 0.0
nan nan nan nan nan nan nan nan nan nan nan nan nan nan nan nan nan nan 0.0 0.0 0.0 0.0 0.0 0.0 0.0 0.0 0.0 0.0 0.0 0.0 0.0 0.0 0.5 0.7 0.8 0.3 0.5 0.6 0.1 1.3 0.0 0.8 0.2 0.9 0.2 2.5 0.0 0.0 0.0 0.0 0.0 0.0 0.0 0.0
nan nan nan nan nan nan nan nan nan nan nan nan nan nan nan nan nan nan 0.0 0.0 0.0 0.0 0.0 0.0 0.0 0.0 0.0 0.0 0.0 0.0 0.0 0.0 0.0 0.0 0.4 0.3 0.1 0.1 0.6 0.3 0.0 0.0 0.0 0.2 0.1 0.0 0.0 0.0 0.0 0.0 0.0 0.0 0.0 0.0
nan nan nan nan nan nan nan nan nan nan nan nan nan nan nan nan nan nan 0.0 0.0 0.0 0.0 0.3 0.0 0.0 0.0 0.0 0.0 0.0 0.0 0.0 0.0 0.0 0.0 0.1 0.1 0.2 0.0 0.0 0.0 0.0 0.0 0.0 0.0 0.0 0.0 0.0 0.0 0.0 0.0 0.0 0.0 0.0 0.0
nan nan nan nan nan nan nan nan nan nan nan nan nan nan nan nan nan nan 0.0 0.0 0.0 0.0 0.2 0.0 0.0 0.0 0.0 0.0 0.0 0.0 0.0 0.0 0.0 0.0 0.1 0.1 0.0 0.0 0.0 0.0 0.0 0.0 0.0 0.1 0.2 0.0 0.0 0.0 0.0 0.0 0.0 0.0 0.0 0.0
nan nan nan nan nan nan nan nan nan nan nan nan nan nan nan nan nan 0.0 0.5 0.0 0.0 0.0 0.0 0.3 0.0 0.0 0.0 0.0 0.0 0.0 0.0 0.0 0.0 0.0 0.0 0.0 0.0 0.0 0.1 0.0 0.0 0.0 0.0 0.0 0.0 0.0 0.0 0.0 0.0 0.0 0.0 0.0 0.0 0.0
nan nan nan nan nan nan nan nan nan nan nan nan nan nan nan nan 0.0 0.0 0.1 0.0 nan 0.0 0.0 0.7 0.0 0.0 0.0 0.0 0.0 0.0 0.0 0.0 0.0 0.0 0.0 0.0 0.0 0.0 0.0 0.0 0.0 0.0 0.0 0.0 0.0 0.0 0.0 0.0 0.0 0.0 0.0 0.0 0.0 0.0
nan nan nan nan nan nan nan nan nan nan nan nan nan nan nan nan nan 0.0 0.0 nan nan 0.0 0.0 1.3 0.8 0.0 0.0 0.0 0.0 0.0 0.0 0.0 0.0 0.0 0.0 0.0 0.0 0.0 0.2 0.0 0.0 0.0 0.0 0.0 0.0 0.0 0.0 0.0 0.0 0.0 0.0 0.0 0.0 0.0
nan nan nan nan nan nan nan nan nan nan nan nan nan nan 0.0 0.0 0.1 0.0 nan nan 0.0 0.1 0.4 0.2 0.9 2.3 0.0 0.0 0.0 0.0 0.0 0.2 0.0 0.0 0.0 0.0 0.0 0.2 0.0 0.0 0.0 0.0 0.0 0.0 0.0 0.0 0.0 0.0 0.0 0.0 0.0 0.0 0.0 0.0
nan nan nan nan nan nan nan nan nan nan nan nan 0.0 0.0 2.6 0.1 nan nan 0.0 0.9 0.3 0.0 0.0 0.1 0.0 0.2 0.0 0.0 0.2 0.0 0.1 0.2 0.3 0.1 0.0 0.1 0.0 0.0 0.0 0.0 0.0 0.0 0.0 0.0 0.0 0.0 0.0 0.0 0.0 0.0 0.0 0.0 0.0 0.0
nan nan nan nan nan nan nan nan nan nan nan 0.0 0.4 1.4 0.0 nan 0.0 0.3 4.6 3.2 0.6 0.2 0.0 0.1 0.0 0.0 0.0 0.2 0.2 0.0 0.3 0.2 0.5 0.1 0.1 0.2 0.3 0.0 0.0 0.0 0.0 0.0 0.0 0.0 0.0 0.0 0.0 0.0 0.0 0.0 0.0 0.0 0.0 0.0
nan nan nan nan nan nan nan nan nan 0.0 0.0 0.0 0.0 0.0 0.0 0.2 1.8 4.8 6.4 2.9 1.4 0.4 0.0 0.0 0.0 0.0 0.0 0.0 0.1 0.2 0.1 0.2 0.0 0.0 1.1 0.9 0.1 0.0 0.0 0.0 0.0 0.0 0.0 0.0 0.0 0.0 0.0 0.0 0.0 0.0 0.0 0.0 0.0 0.0
nan nan nan nan nan nan nan nan nan nan nan 0.0 0.1 0.2 0.5 6.9 35.2 6.0 8.4 2.0 2.5 0.0 0.0 0.0 0.2 0.0 0.0 0.0 0.2 0.2 0.6 1.8 0.0 1.6 0.6 0.4 0.0 0.0 0.0 0.0 0.0 0.0 0.0 0.0 0.0 0.0 0.0 0.0 0.0 0.0 0.0 0.0 0.0 0.0
nan nan nan nan nan nan nan nan nan 0.0 0.0 0.2 1.1 32.3 4.8 4.5 0.8 0.3 0.1 0.1 0.0 0.0 0.0 0.0 0.1 0.2 0.2 0.4 0.3 0.3 0.2 0.1 1.6 1.6 0.6 0.1 0.0 0.0 0.0 0.0 0.0 0.0 0.0 0.0 0.0 0.0 0.0 0.0 0.0 0.0 0.4 0.8 0.5 0.1
nan nan nan nan nan nan nan nan nan 0.0 0.0 0.2 0.8 12.7 1.9 0.1 0.1 0.1 0.0 0.0 0.0 0.0 0.0 0.1 0.1 0.1 0.4 0.9 0.2 0.1 1.3 1.3 0.8 0.5 0.6 0.1 0.0 0.0 0.0 0.0 0.0 0.0 0.1 0.0 0.0 0.0 0.2 0.2 0.0 0.1 0.1 0.0 0.0 1.1
nan nan 0.0 nan nan nan nan nan 0.0 0.0 0.0 0.1 0.1 0.2 0.1 0.5 1.5 1.0 0.2 0.1 0.0 0.0 0.0 0.1 0.2 0.4 0.5 0.4 0.1 0.3 0.1 1.5 0.6 0.2 0.1 0.1 0.0 0.0 0.0 0.0 0.0 0.0 0.0 0.0 0.0 0.0 0.0 0.3 0.2 0.0 0.0 0.0 1.3 0.7
nan 0.0 nan nan nan nan nan 0.0 0.0 0.0 0.5 0.1 1.1 0.2 0.2 0.2 0.4 0.2 0.0 0.0 0.0 0.0 0.8 0.3 0.8 0.1 0.3 1.1 0.4 0.4 1.2 0.8 0.2 0.1 0.1 0.0 0.0 0.0 0.0 0.0 0.1 0.0 0.0 0.0 0.0 0.0 0.0 0.0 0.0 0.0 0.0 0.0 0.0 0.0
0.0 0.0 nan nan nan nan 0.0 0.0 0.1 0.5 0.4 0.2 2.7 0.6 0.2 0.2 0.2 0.1 0.0 0.0 0.0 0.0 0.0 0.0 0.0 0.0 1.0 0.1 1.0 0.4 0.3 0.3 0.2 0.2 0.1 0.0 0.0 0.0 0.0 0.0 0.0 0.0 0.0 0.0 0.0 0.0 0.0 0.0 0.0 0.1 0.0 0.0 0.0 0.0
0.0 0.0 nan nan 0.0 0.0 0.3 0.1 0.0 1.3 0.4 0.2 0.2 0.1 0.1 0.2 0.0 0.0 0.0 0.0 0.0 0.0 0.1 0.1 0.0 0.2 0.3 0.2 0.3 0.2 0.2 0.1 0.2 0.2 0.1 0.0 0.0 0.0 0.0 0.0 0.0 0.0 0.0 0.0 0.0 0.0 0.0 0.0 0.0 0.0 0.0 0.0 0.1 0.1
nan nan nan nan nan 0.1 1.7 0.9 0.0 0.2 0.3 0.4 0.1 0.1 0.1 0.1 0.0 0.1 0.1 0.0 0.0 0.1 0.1 0.3 0.2 0.1 0.1 0.1 0.1 0.1 0.1 0.1 0.1 0.2 0.2 0.1 0.1 0.0 0.0 0.0 0.0 0.0 0.0 0.0 0.1 0.0 0.1 0.0 0.0 0.1 0.1 0.1 0.2 0.3
nan nan nan 0.0 0.0 0.0 0.0 0.3 0.4 0.1 0.2 0.3 0.1 0.0 0.2 0.0 0.2 0.3 0.2 0.0 0.4 0.3 0.3 0.2 0.2 0.2 0.0 0.1 0.0 0.0 0.1 0.0 0.1 0.1 0.1 0.3 0.2 0.1 0.1 0.0 0.0 0.1 0.1 0.1 0.2 0.2 0.2 0.3 0.2 0.2 0.6 0.9 0.4 0.4
0.2 nan 1.2 0.2 1.4 0.9 0.5 0.0 0.2 0.1 0.2 0.2 0.1 0.0 0.2 1.2 0.8 0.3 0.1 0.7 0.5 0.3 0.3 0.2 0.2 0.1 0.1 0.0 0.1 0.0 0.0 0.0 0.0 0.1 0.0 0.0 0.2 0.2 0.2 0.1 0.1 0.2 0.2 0.3 0.3 0.5 0.4 0.3 0.3 0.4 0.7 2.2 0.5 0.5
nan 0.3 1.7 2.0 6.5 6.8 10.9 0.0 0.1 0.1 1.6 0.4 0.1 0.4 0.5 0.3 0.3 0.1 1.0 0.2 0.4 0.3 0.2 0.1 0.0 0.0 0.0 0.0 0.0 0.0 0.0 0.0 0.1 0.0 0.1 0.1 0.2 0.2 0.3 0.3 0.3 0.6 0.6 0.5 0.4 0.5 0.7 0.3 0.8 2.2 1.4 1.6 1.6 5.8
nan 5.0 12.8 9.1 5.7 17.8 0.9 3.2 0.1 0.2 0.2 0.7 0.6 0.3 0.1 0.2 0.0 0.4 0.5 0.4 0.5 0.2 0.2 0.0 0.1 0.1 0.1 0.0 0.2 0.1 0.1 0.0 0.1 0.2 0.1 0.2 0.3 0.3 0.2 0.3 0.3 0.3 0.3 0.3 0.4 0.6 0.8 2.9 2.1 0.9 3.8 8.3 10.9 10.0
17.3 32.1 11.5 30.7 3.1 7.2 5.3 2.0 0.3 0.7 3.8 1.9 1.0 0.7 2.2 0.1 1.4 1.0 0.2 0.8 0.5 0.4 0.2 0.1 0.1 0.1 0.1 0.2 0.3 0.2 0.0 0.2 0.2 0.3 0.2 0.2 0.3 0.4 0.5 0.4 0.4 0.4 0.4 1.5 3.5 5.6 5.8 5.7 5.3 4.6 2.8 11.0 3.2 4.0
39.5 14.8 20.2 3.0 6.7 2.7 1.3 4.5 4.6 4.7 1.8 2.8 1.3 0.4 0.3 1.6 2.1 3.2 0.8 1.4 1.0 0.3 1.7 0.7 0.3 0.2 0.2 0.1 0.2 0.2 0.2 0.1 0.2 0.3 0.3 0.2 0.3 0.5 0.7 1.0 0.8 0.8 0.4 0.9 2.7 7.3 5.1 6.4 7.8 3.4 7.1 3.4 5.4 9.0
33.8 18.9 0.9 0.0 0.1 0.0 4.5 2.6 0.2 1.6 3.6 5.9 1.4 2.6 2.7 11.3 7.4 1.7 0.7 0.6 0.3 0.3 0.2 0.2 0.2 0.1 0.2 0.2 0.1 0.2 0.1 0.2 0.1 0.3 0.3 0.3 0.3 0.3 0.4 1.2 0.5 0.5 0.3 0.7 1.6 7.0 7.8 8.3 9.0 5.4 7.7 7.5 8.2 9.8
2.7 1.0 11.1 1.5 4.8 0.3 4.7 3.1 4.2 6.0 2.1 0.5 1.8 5.7 7.9 7.9 4.6 0.8 0.5 0.4 0.4 0.3 0.2 0.3 0.2 0.2 0.2 0.2 0.3 0.4 0.6 0.7 0.9 0.6 0.7 0.5 0.5 0.8 0.7 0.8 0.8 2.8 0.8 3.1 4.2 5.8 4.1 8.2 10.0 9.7 8.4 9.0 11.2 9.2
3.6 1.0 0.9 14.1 4.2 2.3 4.4 4.9 3.6 0.7 0.2 0.6 6.5 2.8 1.4 0.4 0.7 0.5 0.5 0.5 0.3 0.3 0.6 1.1 1.4 1.2 0.6 0.5 0.8 0.7 0.9 1.0 0.9 3.9 4.5 4.5 4.4 2.6 1.1 1.3 1.5 2.2 1.7 2.6 4.1 3.7 3.7 6.1 7.7 9.0 8.4 10.2 10.0 11.4
2.9 0.5 3.7 7.3 12.4 6.2 4.7 2.9 2.7 1.3 0.1 0.3 0.2 0.3 0.7 1.0 1.0 0.4 0.5 0.6 1.2 5.1 8.5 5.8 5.7 5.3 10.1 7.0 6.9 4.2 3.7 4.7 3.4 5.4 8.0 6.0 2.9 3.8 4.4 5.6 4.9 4.3 4.3 11.1 5.9 2.2 5.4 7.6 9.1 12.7 11.4 11.1 10.9 12.9
0.7 2.9 6.0 2.4 5.5 5.7 4.1 5.3 5.6 1.9 2.1 6.0 4.9 6.3 4.1 2.1 1.4 0.7 0.7 1.2 1.2 12.4 14.0 16.7 15.2 13.3 11.0 7.2 12.1 12.7 8.5 10.8 3.9 1.9 1.9 3.8 4.8 7.9 8.5 7.2 5.9 7.0 7.6 7.6 11.0 7.7 8.1 11.1 11.3 11.4 8.7 7.8 8.8 9.7
5.2 11.0 16.4 11.7 8.3 11.3 4.3 14.9 11.1 10.5 12.2 12.9 13.1 9.1 13.4 12.4 8.6 2.0 3.2 6.4 9.8 14.5 5.6 8.6 16.5 6.2 5.0 4.3 9.3 5.9 6.3 3.5 4.2 4.0 3.9 5.8 6.7 8.1 4.6 4.0 10.9 10.5 8.9 10.8 9.3 9.5 7.5 10.6 10.7 12.2 10.7 9.1 8.8 8.5
17.6 11.2 7.3 9.0 19.2 9.2 9.3 12.4 3.3 11.3 11.5 13.9 12.0 11.0 12.8 11.1 10.0 6.1 1.4 4.9 8.5 8.6 8.4 11.1 11.0 13.9 6.7 5.5 4.3 5.1 6.2 4.7 6.5 8.3 7.1 7.0 6.9 6.9 6.4 10.4 13.3 11.4 7.0 9.9 10.8 9.7 8.2 6.4 8.0 8.2 9.0 10.9 10.0 9.4
Water_Equivalent
nan nan nan nan nan nan nan nan nan nan nan nan nan nan nan nan nan 0.00 0.00 0.00 0.00 0.01 0.00 0.00 0.00 0.00 0.00 0.00 0.05 0.00 0.14 0.09 0.05 0.17 0.28 0.21 0.14 0.14 0.06 0.00 0.00 0.04 0.24 0.51 0.29 0.58 1.42 0.00 0.00 0.00 0.09 0.00 0.00 0.00
nan nan nan nan nan nan nan nan nan nan nan nan nan nan nan nan nan nan 0.00 0.00 0.00 0.00 0.00 0.00 0.00 0.00 0.00 0.00 0.00 0.00 0.01 0.00 0.18 0.19 0.23 0.10 0.15 0.14 0.01 0.29 0.00 0.19 0.05 0.21 0.04 0.55 0.00 0.00 0.00 0.00 0.00 0.00 0.00 0.00
nan nan nan nan nan nan nan nan nan nan nan nan nan nan nan nan nan nan 0.00 0.00 0.00 0.00 0.00 0.00 0.00 0.00 0.00 0.00 0.00 0.00 0.00 0.00 0.00 0.00 0.12 0.09 0.02 0.02 0.15 0.08 0.01 0.00 0.00 0.08 0.03 0.00 0.00 0.00 0.00 0.00 0.00 0.00 0.00 0.00
nan nan nan nan nan nan nan nan nan nan nan nan nan nan nan nan nan nan 0.00 0.00 0.00 0.00 0.10 0.00 0.00 0.00 0.00 0.00 0.00 0.00 0.00 0.00 0.00 0.00 0.04 0.05 0.05 0.00 0.00 0.01 0.00 0.01 0.00 0.00 0.00 0.00 0.00 0.00 0.00 0.00 0.00 0.00 0.00 0.00
nan nan nan nan nan nan nan nan nan nan nan nan nan nan nan nan nan nan 0.00 0.00 0.00 0.00 0.08 0.01 0.00 0.00 0.00 0.00 0.00 0.00 0.00 0.00 0.00 0.00 0.03 0.02 0.00 0.00 0.00 0.00 0.00 0.00 0.00 0.04 0.06 0.00 0.00 0.00 0.00 0.00 0.00 0.00 0.00 0.00
nan nan nan nan nan nan nan nan nan nan nan nan nan nan nan nan nan 0.00 0.18 0.00 0.00 0.00 0.02 0.10 0.00 0.00 0.00 0.00 0.00 0.00 0.00 0.00 0.00 0.00 0.00 0.00 0.00 0.00 0.03 0.00 0.00 0.00 0.00 0.00 0.00 0.00 0.00 0.00 0.00 0.00 0.00 0.00 0.00 0.00
nan nan nan nan nan nan nan nan nan nan nan nan nan nan nan nan 0.00 0.01 0.02 0.00 nan 0.00 0.01 0.19 0.01 0.00 0.00 0.00 0.00 0.00 0.00 0.00 0.00 0.00 0.00 0.00 0.00 0.00 0.00 0.00 0.00 0.00 0.00 0.00 0.00 0.00 0.00 0.00 0.00 0.00 0.00 0.00 0.00 0.00
nan nan nan nan nan nan nan nan nan nan nan nan nan nan nan nan nan 0.00 0.00 nan nan 0.00 0.00 0.40 0.23 0.00 0.00 0.01 0.02 0.00 0.00 0.00 0.00 0.00 0.00 0.00 0.00 0.00 0.06 0.00 0.00 0.00 0.00 0.00 0.00 0.00 0.00 0.00 0.00 0.00 0.00 0.00 0.00 0.00
nan nan nan nan nan nan nan nan nan nan nan nan nan nan 0.00 0.00 0.05 0.00 nan nan 0.00 0.02 0.13 0.07 0.20 0.61 0.00 0.00 0.02 0.00 0.00 0.08 0.00 0.00 0.00 0.00 0.00 0.07 0.00 0.00 0.00 0.00 0.00 0.00 0.00 0.00 0.00 0.00 0.00 0.00 0.00 0.00 0.00 0.00
nan nan nan nan nan nan nan nan nan nan nan nan 0.00 0.00 1.01 0.03 nan nan 0.00 0.31 0.11 0.00 0.00 0.02 0.00 0.09 0.00 0.02 0.07 0.01 0.03 0.06 0.09 0.03 0.00 0.02 0.00 0.00 0.00 0.00 0.00 0.00 0.00 0.00 0.00 0.00 0.00 0.00 0.00 0.00 0.00 0.00 0.00 0.00
nan nan nan nan nan nan nan nan nan nan nan 0.00 0.15 0.40 0.00 nan 0.00 0.08 1.38 0.90 0.18 0.08 0.01 0.02 0.00 0.00 0.00 0.06 0.06 0.01 0.12 0.06 0.17 0.04 0.04 0.06 0.10 0.01 0.00 0.00 0.00 0.00 0.00 0.00 0.00 0.00 0.00 0.00 0.00 0.00 0.00 0.00 0.00 0.00
nan nan nan nan nan nan nan nan nan 0.00 0.00 0.00 0.00 0.00 0.00 0.06 0.53 0.95 1.29 0.58 0.27 0.07 0.00 0.00 0.00 0.00 0.00 0.00 0.06 0.09 0.05 0.06 0.00 0.01 0.38 0.24 0.03 0.00 0.00 0.00 0.00 0.00 0.00 0.00 0.00 0.00 0.00 0.00 0.00 0.00 0.00 0.00 0.00 0.00
nan nan nan nan nan nan nan nan nan nan nan 0.00 0.02 0.05 0.14 1.55 6.40 0.95 1.55 0.38 0.79 0.01 0.01 0.00 0.07 0.00 0.00 0.00 0.09 0.07 0.21 0.63 0.00 0.60 0.19 0.10 0.01 0.00 0.00 0.00 0.00 0.00 0.00 0.00 0.00 0.00 0.00 0.00 0.00 0.00 0.00 0.00 0.00 0.01
nan nan nan nan nan nan nan nan nan 0.00 0.00 0.07 0.26 5.85 1.19 0.83 0.18 0.09 0.03 0.02 0.01 0.00 0.00 0.00 0.05 0.08 0.07 0.14 0.13 0.11 0.07 0.03 0.55 0.36 0.18 0.04 0.00 0.00 0.00 0.00 0.00 0.00 0.00 0.00 0.00 0.00 0.00 0.00 0.00 0.01 0.16 0.29 0.18 0.02
nan nan nan nan nan nan nan nan nan 0.00 0.00 0.08 0.21 2.71 0.60 0.04 0.04 0.04 0.01 0.01 0.00 0.00 0.00 0.04 0.03 0.04 0.15 0.30 0.08 0.03 0.46 0.42 0.23 0.15 0.18 0.03 0.00 0.00 0.00 0.00 0.00 0.00 0.02 0.01 0.00 0.00 0.07 0.06 0.01 0.04 0.03 0.01 0.00 0.31
nan nan 0.00 nan nan nan nan nan 0.00 0.00 0.01 0.04 0.02 0.06 0.04 0.21 0.59 0.39 0.07 0.04 0.00 0.00 0.00 0.02 0.06 0.13 0.18 0.15 0.04 0.13 0.04 0.37 0.18 0.06 0.04 0.04 0.00 0.00 0.00 0.00 0.00 0.00 0.00 0.00 0.00 0.00 0.00 0.10 0.08 0.00 0.00 0.01 0.40 0.21
nan 0.00 nan nan nan nan nan 0.00 0.00 0.00 0.14 0.02 0.44 0.07 0.09 0.07 0.15 0.09 0.00 0.00 0.00 0.00 0.31 0.12 0.20 0.03 0.08 0.30 0.11 0.11 0.40 0.24 0.07 0.05 0.05 0.00 0.00 0.00 0.00 0.00 0.03 0.00 0.00 0.00 0.00 0.00 0.00 0.00 0.00 0.00 0.00 0.00 0.00 0.00
0.00 0.00 nan nan nan nan 0.00 0.00 0.03 0.16 0.08 0.07 1.06 0.22 0.09 0.08 0.08 0.05 0.00 0.00 0.00 0.00 0.01 0.01 0.00 0.02 0.37 0.03 0.30 0.13 0.10 0.10 0.08 0.07 0.05 0.02 0.00 0.00 0.00 0.00 0.00 0.00 0.00 0.00 0.00 0.00 0.00 0.00 0.00 0.06 0.00 0.00 0.00 0.00
0.00 0.00 nan nan 0.00 0.00 0.13 0.03 0.01 0.28 0.16 0.08 0.07 0.05 0.06 0.10 0.02 0.00 0.00 0.00 0.00 0.00 0.02 0.04 0.01 0.08 0.10 0.07 0.10 0.07 0.06 0.05 0.06 0.06 0.04 0.00 0.00 0.00 0.00 0.00 0.00 0.00 0.00 0.00 0.00 0.01 0.01 0.00 0.01 0.01 0.01 0.01 0.02 0.03
nan nan nan nan nan 0.02 0.39 0.19 0.00 0.04 0.11 0.15 0.03 0.04 0.05 0.05 0.01 0.06 0.03 0.00 0.00 0.03 0.05 0.08 0.08 0.05 0.04 0.04 0.04 0.03 0.03 0.03 0.03 0.06 0.06 0.05 0.05 0.00 0.00 0.01 0.00 0.00 0.00 0.00 0.03 0.00 0.02 0.02 0.00 0.03 0.02 0.03 0.08 0.11
nan nan nan 0.00 0.00 0.00 0.01 0.09 0.08 0.02 0.06 0.11 0.04 0.00 0.10 0.01 0.07 0.11 0.09 0.01 0.16 0.10 0.09 0.08 0.08 0.06 0.01 0.02 0.01 0.01 0.02 0.00 0.04 0.05 0.05 0.09 0.08 0.03 0.03 0.01 0.02 0.03 0.03 0.03 0.08 0.08 0.06 0.09 0.08 0.06 0.24 0.35 0.17 0.14
0.08 nan 0.43 0.05 0.38 0.25 0.16 0.00 0.06 0.03 0.08 0.06 0.03 0.01 0.09 0.47 0.32 0.13 0.05 0.23 0.15 0.11 0.09 0.07 0.07 0.05 0.05 0.02 0.03 0.00 0.00 0.00 0.00 0.02 0.01 0.01 0.07 0.06 0.05 0.03 0.04 0.08 0.09 0.10 0.10 0.17 0.13 0.11 0.12 0.14 0.28 0.90 0.18 0.18
nan 0.11 0.47 0.51 1.37 1.46 2.17 0.00 0.02 0.04 0.41 0.13 0.05 0.10 0.18 0.13 0.11 0.02 0.31 0.08 0.13 0.11 0.08 0.05 0.01 0.00 0.02 0.00 0.00 0.00 0.00 0.00 0.03 0.02 0.05 0.05 0.06 0.08 0.08 0.09 0.09 0.19 0.18 0.13 0.11 0.16 0.22 0.08 0.28 0.85 0.51 0.61 0.60 2.15
nan 1.22 2.83 1.83 1.13 3.33 0.22 1.07 0.03 0.09 0.09 0.21 0.19 0.09 0.03 0.08 0.01 0.16 0.19 0.14 0.14 0.09 0.06 0.00 0.03 0.05 0.03 0.00 0.06 0.03 0.04 0.01 0.04 0.06 0.06 0.07 0.09 0.10 0.08 0.09 0.11 0.11 0.10 0.11 0.14 0.20 0.24 1.05 0.69 0.31 1.41 3.22 4.22 3.59
3.53 5.68 2.74 4.59 0.76 2.02 1.57 0.67 0.08 0.21 0.95 0.60 0.29 0.27 0.80 0.03 0.47 0.33 0.07 0.22 0.16 0.13 0.08 0.05 0.04 0.03 0.04 0.07 0.09 0.08 0.00 0.07 0.08 0.11 0.09 0.08 0.11 0.14 0.14 0.11 0.12 0.12 0.12 0.54 1.16 1.96 2.06 2.00 1.93 1.71 1.00 4.05 1.07 1.34
6.54 4.27 3.43 0.83 2.03 0.82 0.39 1.16 1.19 1.36 0.59 0.84 0.45 0.15 0.13 0.55 0.56 0.74 0.20 0.39 0.31 0.12 0.69 0.28 0.11 0.06 0.07 0.03 0.06 0.06 0.06 0.05 0.07 0.10 0.10 0.07 0.09 0.17 0.23 0.29 0.23 0.22 0.13 0.33 0.97 2.63 1.81 2.31 2.79 1.17 2.53 1.20 1.76 3.29
5.12 4.36 0.21 0.00 0.03 0.01 1.30 1.00 0.07 0.55 0.93 1.37 0.45 0.85 0.90 2.37 1.73 0.43 0.20 0.19 0.11 0.12 0.09 0.07 0.06 0.05 0.06 0.05 0.05 0.07 0.06 0.07 0.04 0.11 0.11 0.09 0.10 0.10 0.14 0.42 0.18 0.16 0.13 0.27 0.65 2.79 2.81 2.91 3.19 1.87 2.56 2.72 3.01 3.47
0.58 0.22 1.66 0.55 1.51 0.13 1.24 0.78 0.99 1.32 0.50 0.15 0.52 1.34 1.89 1.76 0.89 0.22 0.15 0.15 0.16 0.10 0.10 0.10 0.08 0.06 0.07 0.09 0.10 0.14 0.20 0.23 0.29 0.20 0.22 0.17 0.15 0.27 0.21 0.26 0.27 0.91 0.33 1.24 1.68 2.29 1.52 2.99 3.46 3.46 3.00 3.10 3.74 3.29
0.82 0.24 0.28 1.83 0.84 0.58 1.08 1.20 0.85 0.20 0.06 0.20 1.86 0.71 0.37 0.12 0.23 0.17 0.16 0.15 0.13 0.13 0.20 0.34 0.45 0.42 0.22 0.18 0.28 0.21 0.28 0.34 0.27 0.96 1.26 1.20 1.17 0.71 0.32 0.40 0.47 0.73 0.57 0.94 1.36 1.28 1.34 2.02 2.61 3.13 3.18 3.55 3.47 4.01
0.65 0.15 0.92 1.37 1.47 1.01 1.36 0.85 0.90 0.48 0.05 0.12 0.08 0.10 0.18 0.29 0.32 0.13 0.18 0.19 0.36 1.64 3.16 2.19 2.09 1.92 3.54 2.22 1.99 1.23 1.29 1.69 1.11 1.79 2.43 1.65 0.90 1.10 1.37 1.89 1.74 1.55 1.52 4.08 1.95 0.65 1.72 2.43 2.98 4.10 3.50 3.26 3.40 3.78
0.18 0.95 1.62 0.62 1.29 1.89 1.43 1.94 2.12 0.71 0.77 2.08 1.80 2.02 1.21 0.57 0.43 0.23 0.21 0.35 0.37 4.34 4.89 5.42 5.26 5.17 3.95 2.23 4.01 3.60 2.23 3.49 1.23 0.60 0.58 1.18 1.54 2.46 2.75 2.36 2.10 2.52 2.71 2.59 3.60 2.33 2.32 3.17 3.35 3.44 2.39 2.18 2.28 2.31
1.50 3.18 2.79 1.67 2.09 3.70 1.45 4.83 3.54 3.10 3.98 3.62 3.93 2.95 4.13 3.39 2.06 0.55 0.79 1.84 2.95 4.02 1.84 2.72 5.00 1.75 1.53 1.27 2.93 1.90 2.08 1.00 1.10 1.10 1.18 1.69 2.10 2.62 1.39 1.12 3.62 3.65 2.87 3.26 2.66 2.70 2.17 2.95 2.82 3.23 2.70 2.41 2.18 1.94
5.11 3.26 1.97 2.13 4.75 2.39 2.61 3.54 0.89 3.18 2.68 3.24 3.41 3.15 3.45 2.69 1.95 1.55 0.40 1.43 2.36 2.54 2.13 3.15 3.32 4.48 2.00 1.70 1.28 1.51 1.98 1.34 2.01 2.73 2.35 2.30 2.28 2.24 1.87 3.22 4.18 3.22 1.83 2.68 3.01 2.61 2.26 1.59 1.80 2.02 2.15 2.58 2.30 2.09
SL_Ratio
nan nan nan nan nan nan nan nan nan nan nan nan nan nan nan nan nan nan nan nan nan 2.6 nan nan nan nan nan nan 3.0 nan 3.5 3.2 2.9 3.7 3.8 3.9 4.0 4.0 4.3 nan nan 4.2 4.5 4.6 4.5 5.0 5.9 nan nan 5.0 4.3 nan nan nan
nan nan nan nan nan nan nan nan nan nan nan nan nan nan nan nan nan nan nan nan nan nan 2.0 nan nan nan nan nan nan nan 3.2 nan 2.9 3.4 3.6 3.3 3.7 3.9 4.2 4.3 nan 4.1 4.2 4.3 4.5 4.6 nan nan nan nan nan nan nan nan
nan nan nan nan nan nan nan nan nan nan nan nan nan nan nan nan nan nan nan nan nan 0.0 nan nan nan nan nan nan nan 0.0 2.9 nan 2.9 nan 3.1 3.3 3.9 3.8 4.3 4.3 3.3 nan nan 2.5 3.9 nan nan nan nan nan nan nan nan nan
nan nan nan nan nan nan nan nan nan nan nan nan nan nan nan nan nan nan nan nan nan nan 2.9 3.3 nan nan nan nan nan nan nan nan nan nan 2.6 2.5 3.2 nan 3.3 3.1 nan 3.6 nan nan nan nan nan nan nan nan nan nan nan nan
nan nan nan nan nan nan nan nan nan nan nan nan nan nan nan nan nan nan nan nan nan nan 2.8 2.4 nan nan nan nan nan nan nan nan nan 2.9 2.5 2.6 nan 2.7 nan nan nan nan nan 2.7 2.6 nan nan nan nan nan nan nan nan nan
nan nan nan nan nan nan nan nan nan nan nan nan nan nan nan nan nan nan 2.6 nan nan nan 2.6 2.8 nan nan nan nan nan nan nan nan nan nan nan nan nan nan 2.4 nan nan nan nan nan nan nan nan nan nan nan nan nan nan nan
nan nan nan nan nan nan nan nan nan nan nan nan nan nan nan nan nan 2.9 3.8 nan nan nan 2.4 3.8 2.7 nan nan nan nan nan nan nan nan nan 3.3 nan nan nan 3.1 nan nan nan nan nan nan nan nan nan nan nan nan nan nan nan
nan nan nan nan nan nan nan nan nan nan nan nan nan nan nan nan nan nan nan nan nan 3.3 nan 3.3 3.6 nan nan 2.7 2.4 nan nan nan 2.0 nan nan nan nan nan 2.8 nan nan nan nan nan nan nan nan nan nan nan nan nan nan nan
nan nan nan nan nan nan nan nan nan nan nan nan nan nan nan nan 2.7 0.0 nan nan nan 2.9 3.0 2.7 4.3 3.8 nan nan 2.4 nan nan 2.7 nan 2.5 nan nan 0.0 2.8 nan nan nan nan nan nan nan nan nan nan nan nan nan nan nan nan
nan nan nan nan nan nan nan nan nan nan nan nan nan 2.7 2.6 2.6 nan nan 2.3 2.9 3.0 2.2 nan 2.5 nan 2.8 nan 2.6 2.6 2.7 2.5 2.8 2.9 2.6 0.0 2.9 2.5 nan nan nan nan nan nan nan nan nan nan nan nan nan nan nan nan nan
nan nan nan nan nan nan nan nan nan nan nan nan 2.6 3.4 nan nan nan 3.7 3.3 3.5 3.3 3.0 2.9 3.2 nan 3.0 nan 2.6 2.8 2.5 2.8 2.7 3.3 3.4 2.6 2.7 3.6 2.9 nan nan nan nan nan nan nan nan nan nan nan nan nan nan nan nan
nan nan nan nan nan nan nan nan nan nan nan 2.5 nan nan nan 2.5 3.4 5.1 5.0 5.0 5.3 5.9 nan nan nan nan nan nan 2.5 2.7 2.6 2.5 3.3 2.6 3.0 3.6 2.8 nan nan nan nan nan nan nan nan nan nan nan nan nan nan nan nan nan
nan nan nan nan nan nan nan nan nan nan nan nan 2.5 3.3 3.3 4.5 5.5 6.3 5.4 5.3 3.1 2.6 2.6 nan 2.5 nan nan 2.0 2.5 2.6 2.7 2.9 2.2 2.6 3.5 3.5 2.8 nan nan nan nan nan nan nan nan nan nan nan nan nan nan nan 2.9 2.8
nan nan nan nan nan nan nan nan nan nan nan 2.5 4.0 5.5 4.0 5.4 4.6 2.7 2.6 2.5 2.1 nan nan nan 2.6 2.7 2.7 2.8 2.5 2.8 2.5 2.6 3.0 4.5 3.2 2.8 0.0 nan nan nan nan nan nan nan nan nan nan 5.0 3.1 2.5 2.7 2.6 3.0 3.0
nan nan nan nan nan nan nan nan nan nan nan 2.6 3.7 4.7 3.2 2.6 2.5 2.5 2.5 2.6 3.3 nan nan 2.7 2.7 2.7 2.9 2.8 2.6 2.5 2.7 3.0 3.4 3.1 3.1 2.5 nan nan nan nan nan nan 2.6 2.6 nan nan 2.8 2.8 3.1 3.1 2.9 3.2 0.0 3.4
nan nan nan nan nan nan nan nan nan nan 2.4 2.6 3.5 2.5 2.5 2.5 2.5 2.5 2.5 2.5 nan nan 3.3 2.5 2.7 3.0 3.0 2.7 3.2 2.5 3.2 4.1 3.4 3.0 2.6 2.5 nan nan nan nan nan nan nan nan nan nan 2.5 3.0 3.0 nan nan 3.1 3.2 3.1
nan nan nan nan nan nan nan nan nan 3.3 3.7 2.6 2.5 2.5 2.5 2.5 2.5 2.5 3.0 nan nan 3.3 2.6 3.0 3.8 3.8 3.1 3.7 3.9 3.3 3.1 3.2 2.9 2.7 2.5 0.0 nan nan nan nan 2.7 3.3 nan nan nan nan nan nan nan nan nan nan nan 5.0
nan nan nan nan nan nan nan nan 2.7 3.4 5.1 2.5 2.6 2.5 2.5 2.5 2.5 2.5 2.5 nan nan nan 2.5 2.5 nan 2.6 2.7 3.0 3.4 3.1 3.1 2.9 2.7 2.5 2.5 2.5 nan nan nan nan nan nan nan nan nan nan nan nan 5.0 2.6 nan 0.0 2.0 2.5
nan nan nan nan nan nan 2.5 3.0 3.5 4.8 2.5 2.5 2.5 2.5 2.5 2.5 2.5 2.5 nan nan nan nan 2.9 2.8 2.9 2.9 2.9 2.9 2.9 2.6 2.5 2.6 2.8 2.5 2.5 nan nan nan nan nan nan nan nan nan nan 2.4 2.5 nan 2.2 2.2 2.3 2.6 2.6 2.6
nan nan nan nan nan 3.8 4.4 4.6 nan 4.4 2.6 2.5 2.5 2.5 2.5 2.5 2.6 2.5 2.5 nan nan 2.6 2.7 3.3 2.9 2.6 2.7 2.6 2.6 2.5 2.5 2.5 2.7 2.8 2.9 2.6 2.4 nan nan 2.5 2.0 0.0 1.7 0.0 2.5 2.5 2.5 2.7 2.3 2.7 2.6 2.5 2.7 2.9
nan nan nan nan nan nan 4.6 3.4 5.9 2.5 2.5 2.5 2.5 nan 2.5 2.4 2.5 2.5 2.5 2.6 2.5 2.8 3.1 3.0 2.7 2.5 2.4 2.5 2.5 2.4 2.5 0.0 2.6 2.8 2.8 3.2 2.9 2.6 2.6 2.5 2.5 2.5 2.6 2.6 2.6 2.8 3.0 2.9 2.9 2.7 2.5 2.5 2.5 2.5
2.6 nan 2.7 2.9 3.6 3.7 3.3 nan 4.4 2.5 2.5 2.5 2.5 2.5 2.5 2.5 2.5 2.5 2.5 2.9 3.3 3.0 2.9 2.8 2.7 2.7 2.7 2.7 2.6 0.0 nan nan nan 2.4 2.6 2.7 3.0 2.9 2.9 2.6 2.6 2.8 2.9 2.8 3.0 2.9 3.0 3.0 2.8 2.6 2.6 2.5 2.6 2.6
nan 3.0 3.6 4.0 4.8 4.6 5.0 nan 4.1 2.7 3.9 2.9 2.5 3.7 2.8 2.6 2.7 2.7 3.1 3.1 3.0 2.8 2.7 2.7 2.6 nan 2.6 nan nan nan nan nan 2.7 2.4 2.4 2.5 2.7 2.9 3.0 3.2 3.0 3.1 3.4 3.5 3.2 3.2 3.0 3.2 3.1 2.6 2.6 2.6 2.7 2.7
nan 4.1 4.5 4.9 5.0 5.3 4.1 3.0 2.5 2.8 2.8 3.2 2.9 3.3 2.9 2.5 2.4 2.7 2.9 3.1 3.3 2.8 2.8 nan 2.7 2.8 2.7 nan 3.0 2.7 2.5 2.6 2.7 2.7 2.5 2.6 2.8 2.9 3.0 3.0 3.0 3.0 3.0 3.0 3.1 3.0 3.1 2.8 3.0 2.8 2.7 2.6 2.6 2.8
4.9 5.7 4.2 6.7 4.1 3.5 3.4 3.0 3.4 3.6 4.0 3.1 3.4 2.7 2.7 2.4 3.0 3.1 3.4 3.7 3.3 3.0 2.8 2.6 2.8 2.6 2.8 3.0 3.2 3.0 5.0 2.5 2.9 2.9 2.8 2.7 2.8 3.2 3.5 3.3 3.5 3.3 3.1 2.8 3.0 2.9 2.8 2.8 2.7 2.7 2.8 2.7 3.0 3.0
6.0 3.5 5.9 3.6 3.3 3.2 3.4 3.8 3.8 3.5 3.1 3.4 2.9 2.5 2.5 2.9 3.8 4.3 3.9 3.5 3.1 2.8 2.5 2.5 2.6 2.8 3.1 2.7 3.0 3.0 2.7 2.5 2.6 3.1 3.0 2.6 2.8 3.0 3.0 3.4 3.6 3.5 3.2 2.8 2.8 2.8 2.8 2.8 2.8 2.9 2.8 2.8 3.0 2.7
6.6 4.3 4.5 0.0 2.5 2.6 3.5 2.6 2.5 2.8 3.9 4.3 3.2 3.1 3.0 4.8 4.3 4.0 3.4 3.2 3.0 2.7 2.6 2.6 2.7 2.8 2.9 3.0 2.8 2.7 2.5 2.5 2.6 2.8 2.8 2.8 2.7 2.7 2.7 2.9 3.0 3.0 2.6 2.5 2.5 2.5 2.8 2.8 2.8 2.9 3.0 2.8 2.7 2.8
4.6 4.8 6.7 2.7 3.2 2.5 3.8 3.9 4.2 4.5 4.2 3.2 3.4 4.3 4.2 4.5 5.1 3.4 3.3 3.0 2.8 2.6 2.6 2.6 2.7 2.8 2.9 2.8 2.9 3.0 3.0 3.2 3.1 2.8 3.2 3.1 3.1 3.0 3.1 3.1 3.0 3.0 2.6 2.5 2.5 2.5 2.7 2.7 2.9 2.8 2.8 2.9 3.0 2.8
4.4 4.1 3.3 7.7 5.0 4.0 4.1 4.1 4.3 3.4 2.9 2.8 3.5 3.9 3.7 3.3 3.0 3.0 3.1 3.0 2.5 2.5 2.9 3.1 3.2 2.7 2.8 2.8 3.0 3.1 3.1 2.9 3.2 4.1 3.6 3.7 3.8 3.7 3.4 3.2 3.1 3.1 2.9 2.7 3.0 2.9 2.7 3.0 2.9 2.9 2.6 2.9 2.9 2.8
4.5 3.4 4.0 5.3 8.5 6.2 3.5 3.4 3.0 2.7 2.7 2.5 2.7 3.2 3.9 3.5 3.2 2.8 2.9 3.1 3.4 3.1 2.7 2.6 2.7 2.7 2.9 3.2 3.5 3.4 2.9 2.8 3.0 3.0 3.3 3.6 3.3 3.4 3.2 3.0 2.8 2.8 2.8 2.7 3.0 3.4 3.1 3.1 3.1 3.1 3.2 3.4 3.2 3.4
4.0 3.1 3.7 3.8 4.2 3.0 2.9 2.8 2.7 2.7 2.7 2.9 2.7 3.1 3.4 3.6 3.3 3.1 3.3 3.4 3.2 2.9 2.9 3.1 2.9 2.6 2.8 3.2 3.0 3.5 3.8 3.1 3.2 3.2 3.3 3.2 3.2 3.2 3.1 3.0 2.8 2.8 2.8 2.9 3.0 3.3 3.5 3.5 3.4 3.3 3.6 3.6 3.9 4.2
3.5 3.4 5.9 7.0 4.0 3.1 2.9 3.1 3.1 3.4 3.1 3.6 3.3 3.1 3.3 3.7 4.2 3.7 4.0 3.5 3.3 3.6 3.1 3.2 3.3 3.6 3.3 3.4 3.2 3.1 3.0 3.5 3.9 3.7 3.3 3.5 3.2 3.1 3.3 3.5 3.0 2.9 3.1 3.3 3.5 3.5 3.5 3.6 3.8 3.8 4.0 3.8 4.0 4.4
3.4 3.4 3.7 4.2 4.0 3.8 3.6 3.5 3.8 3.5 4.3 4.3 3.5 3.5 3.7 4.1 5.1 3.9 3.6 3.4 3.6 3.4 3.9 3.5 3.3 3.1 3.3 3.2 3.4 3.4 3.1 3.5 3.2 3.0 3.0 3.0 3.0 3.1 3.4 3.2 3.2 3.5 3.8 3.7 3.6 3.7 3.6 4.0 4.5 4.1 4.2 4.2 4.4 4.5